Flag for U.S.A. Weather past 2 weeks in Memphis, Tennessee, U.S.A.

Now
84 °F

Passing clouds.


Feels Like: 86 °F
Forecast: 69 / 89 °F
Wind: 6 mph from Southeast

Location: Memphis International Airport

Current Time: Aug 28, 2015 at 8:15:22 PM

Latest Report: Aug 28, 2015 at 7:54 PM


Visibility: 10 mi

Pressure: 29.99 "Hg

Humidity: 53%

Dew point: 65 °F

Location of MemphisLocation

Historic Weather in Memphis — Graph

°F

Memphis temperature yesterday

Maximum temperature yesterday: 84 °F (at 3:54 PM)
Minimum temperature yesterday: 62 °F (at 5:54 AM)
Average temperature yesterday: 74 °F

Past Weeks' High & Low Weather Summary

 TemperatureHumidityPressure
High91 °F (Aug 15, 1:54 PM)94% (Aug 18, 7:57 AM)30.14 "Hg (Aug 18, 7:57 AM)
Low62 °F (Aug 25, 5:54 AM)33% (Aug 25, 11:54 AM)29.80 "Hg (Aug 18, 6:54 PM)
Average78 °F65%30.02 "Hg
* Reported Aug 13 6:54 PM — Aug 28 6:54 PM, Memphis, Weather by CustomWeather, © 2015

Note: Actual official high and low records may vary slightly from our data, if they occured in-between our weather recording intervals... More about our weather records

Advertising

Memphis weather history for previous 24 hours

 ConditionsComfort  
Time TempWeatherWind HumidityBarometerVisibility
6:54 PM
Fri, Aug 28
85 °FScattered clouds.8 mph48%29.98 "Hg10 mi
5:54 PM87 °FScattered clouds.8 mph45%29.98 "Hg10 mi
4:54 PM89 °FScattered clouds.6 mph41%29.98 "Hg10 mi
3:54 PM90 °FScattered clouds.7 mph39%30.00 "Hg10 mi
2:54 PM89 °FPartly sunny.9 mph39%30.01 "Hg10 mi
1:54 PM89 °FScattered clouds.6 mph41%30.03 "Hg10 mi
12:54 PM88 °FScattered clouds.8 mph42%30.06 "Hg10 mi
11:54 AM86 °FScattered clouds.3 mph45%30.07 "Hg10 mi
10:54 AM84 °FPassing clouds.3 mph49%30.08 "Hg10 mi
9:54 AM79 °FPassing clouds.3 mph56%30.08 "Hg10 mi
8:54 AM74 °FPassing clouds.3 mph62%30.07 "Hg10 mi
7:54 AM69 °FPassing clouds.6 mph70%30.06 "Hg10 mi
6:54 AM65 °FPassing clouds.6 mph81%30.06 "Hg10 mi
5:54 AM64 °FPassing clouds.No wind84%30.05 "Hg10 mi
4:54 AM66 °FPassing clouds.3 mph78%30.04 "Hg10 mi
3:54 AM67 °FClear.5 mph79%30.04 "Hg10 mi
2:54 AM68 °FClear.3 mph73%30.03 "Hg10 mi
1:54 AM67 °FClear.No wind76%30.04 "Hg10 mi
12:54 AM71 °FClear.No wind66%30.05 "Hg10 mi
11:54 PM
Thu, Aug 27
69 °FPassing clouds.No wind70%30.05 "Hg10 mi
10:54 PM73 °FPassing clouds.3 mph59%30.05 "Hg10 mi
9:54 PM73 °FPassing clouds.No wind59%30.05 "Hg10 mi
8:54 PM75 °FPassing clouds.5 mph55%30.04 "Hg10 mi
Weather by CustomWeather, © 2015

See weather overviewHow to use our weather pages